Find WHDW 06-09

NORAD ID: 65051 Int'l Des: 2025-162 Owner: ZXW Country: CN Constellation: xingwang operational
LEOCIRCULAR

Live-Position

3D-Globus wird geladen...

Über WHDW 06-09

Beschreibung wird geladen...

Nächste Überflüge

Passes for default location (London). Set your location on the main map for personalized predictions.

Höhenverlauf

Loading altitude history...

Zweizeiliger Elementsatz

1 65051U 25162J 26105.62518500 -.00000087 00000-0 78882-4 0 9997
2 65051 50.0018 129.8435 0000875 235.8875 124.1914 13.29335704 35044
Epoch: 15. Apr. 2026 • Age: 11 hours

Aktueller Status

Höhe 1149.5 km
Geschwindigkeit 7.28 km/s
Subsatellitenpunkt 12.60°N, 93.95°W
Startdatum 30. Juli 2025
Alter 0.7 years
Typ other

Technische Details

Klassifizierung Payload
Masse 800.00 kg
Trockenmasse 800.00 kg
Gesamtmasse 800.00 kg
Länge 3.00 m
Durchmesser 1.00 m
Spannweite 10.00 m
Form Box + 2 Pan
Hersteller SECM
Bus-Typ Xingwang S
Phasenstatus In Orbit
Besitzer/Staat ZXW/CN

Most Searched